STARLINK-5699, 55449

Orbit data source: Space-Track

STARLINK-5699, 55449 is a payload satellite owned by SpaceX/Seattle (US) in LEO that was launched on Thu, 02 Feb 2023 UTC via an FALCON 9 launch vehicle from the Air Force Eastern Test Range (AFETR). Payload-class satellites include a variety of spacecraft equipped with specific instruments for various scientific and technological missions. These include communications satellites like Starlink; space stations such as the ISS; scientific satellites like the Hubble; Earth observation satellites from companies like Planet Labs, Umbra, and HawkEye 360; GPS; miniature CubeSats for education and research; and military/defense satellites.

Loading next visibility...
Identifier
55449, 2023-015A
Orbit
LEO
Last TLE update
12 hours ago
Origin
Manufacturer
SpaceX/Seattle
Mission
Operational Commercial Communications
Bus & Motor
STARLINK, Unknown motor
Mass
305 kg wet, ~290 kg dry
Launch date (UTC)
2023-02-02 (2 years ago)
Launch vehicle
FALCON 9
Launch site
Air Force Eastern Test Range (AFETR)
Object type
Payload
Rocket body
Debris
Shape & HBR
Box + 1 Pan, 8.86 m
Radar Cross Section
13.562 m², Large (>1 m²)

Expand to show TLE details & history

TLE from 12 hours ago
0 STARLINK-5699
1 55449U 23015A   25181.90283787 -.00000268  00000-0 -48035-5 0  9992
2 55449  43.0021 254.5713 0001269 272.7984  87.2713 15.02534424133817
Epoch: 2025-06-30T21:40Z
TLE epoch observation values (Epoch: 2025-06-30T21:40:05.191Z)
Latitude
-0.00004°
Longitude
10.34365°
Altitude
558.821 km
Speed
7.584 km/s
True Right ascension
16h 58m 17s
True Declination
0° 00' 00"
Sunlit
Object was in full shadow at epoch
Visualization orbit readout
Latitude
6.74117°
Longitude
-179.59808°
Altitude
558.479 km
Speed
7.584 km/s
Apparent Right ascension
06h 17m 12s
Apparent Declination
-18° 56' 41"
Sunlit
Object is in daylight
Visualization observer readout
Local Sidereal Time
21:13:42
Azimuth
74.173° E
Elevation
-46.81°
Doppler factor
1
Orbital elements
Apogee altitude
561.889 km
Perigee altitude
560.127 km
Semi-major axis
6,939.145 km
Eccentricity
0.00013
Inclination
43.0021°
RAAN
254.5713°
Arg. of periapsis
272.7984°
True anomaly
Unknown
Mean anomaly
87.2713°
Eccentric anomaly
Unknown
Mean motion
3.75478 °/min
Orbital period
95.88 mins
BSTAR
-0.0000048035
Loading maneuver chart data...
Loading SW <> Apogee altitude chart data...
Loading historical data...
Loading historical data...
Loading historical data...
Loading historical data...
Loading historical data...
Loading historical data...
Loading historical data...

STARLINK-5699 Visibility forecast

Observer location: undefined°, undefined°

Span
Click to sort rows by Start time (UTC) header in descending order
Start Az.
Max El. time (UTC)
Max El. Az.
Max El.
End time (UTC)
End Az.
7 mins2025-07-01 10:45:23.417Z279.632° WNW2025-07-01 10:48:23.417Z328.143° NNW38.417°2025-07-01 10:52:23.417Z73.846° E
6 mins2025-07-01 12:27:23.417Z292.187° WNW2025-07-01 12:29:23.417Z324.388° NNW42.864°2025-07-01 12:33:23.417Z100.344° ESE
5 mins2025-07-01 14:08:23.417Z258.996° W2025-07-01 14:10:23.417Z208.044° SW29.542°2025-07-01 14:13:23.417Z150.6° SSE
5 mins2025-07-02 07:22:23.417Z192.557° SSW2025-07-02 07:24:23.417Z152.632° SSE25.034°2025-07-02 07:27:23.417Z94.19° ESE
6 mins2025-07-02 09:02:23.417Z254.472° W2025-07-02 09:05:23.417Z55.317° ENE43.839°2025-07-02 09:08:23.417Z71.23° E
|